Theta_e
343 346 348 350 347 349 349 351 359 362 363 353 355 357 357 364 364 365 365 364 361 357 352 351 351 353 356 354 354 355 354 356 357 351 349 355 354 354 354 352 354 354 354 353 354 354 353 354 355 355 354 353 352 352 350 347 343 341 340 341 343 345 348 350 351 352 353 354 353 351 347 346 347 348 348 348 348 349 351 351 351 352 353 353 353 351 352 353 352 353 352 353 354 353 354 354 354
348 349 347 348 347 352 355 358 359 356 356 349 354 358 359 366 365 366 367 364 360 351 349 350 350 351 351 350 349 352 355 354 355 354 352 354 353 354 353 352 354 354 355 354 355 355 354 354 354 353 351 352 352 350 347 344 341 339 339 341 343 345 348 351 352 352 353 353 351 349 346 346 346 346 347 349 349 350 350 350 350 350 351 351 352 351 350 351 352 352 352 353 353 353 354 354 354
349 346 346 348 349 354 359 363 356 348 349 348 354 362 364 367 365 366 365 360 353 348 349 348 351 353 350 351 351 353 355 353 351 352 352 354 354 352 353 352 353 354 354 355 355 354 355 353 353 352 351 352 351 348 345 342 340 341 342 343 345 347 350 352 352 352 354 353 351 350 347 345 346 346 347 347 349 350 350 349 349 349 349 350 351 351 350 351 352 353 352 352 352 352 352 353 353
349 346 348 350 354 358 361 364 359 351 349 347 353 364 367 367 365 366 361 354 350 348 349 349 353 354 353 352 351 353 354 353 351 352 353 356 355 352 354 353 352 355 353 354 354 353 354 352 352 352 352 352 349 347 343 341 342 343 345 346 349 351 352 352 353 352 353 353 350 349 346 345 346 347 347 347 349 350 349 349 349 349 350 351 352 351 351 350 351 352 351 351 350 350 351 353 353
350 348 349 352 359 363 363 365 363 356 351 353 357 364 367 367 366 364 358 351 349 349 350 352 354 352 353 351 349 353 352 352 352 354 355 356 355 354 355 353 352 353 353 354 352 353 352 350 352 353 352 350 347 345 342 341 344 346 348 350 351 352 352 352 352 352 353 352 349 346 346 347 347 348 348 348 350 350 348 349 349 349 351 351 351 351 351 349 350 351 351 351 350 350 350 352 353
351 348 350 354 360 362 361 357 354 353 357 365 364 366 367 366 365 362 356 351 350 350 350 351 352 352 352 350 349 351 351 351 352 353 355 355 355 354 355 353 352 352 353 353 353 354 351 350 352 351 350 348 345 342 341 342 346 349 351 352 352 351 351 352 351 350 352 352 347 346 346 347 349 349 349 349 349 350 350 350 349 350 350 349 349 351 351 350 349 350 351 351 350 351 350 351 353
352 353 357 358 360 361 362 353 350 357 362 367 366 368 367 365 363 358 356 354 354 353 351 351 349 351 351 350 350 351 351 352 353 353 353 354 354 353 353 353 353 353 355 355 355 354 351 350 350 349 347 345 343 341 341 344 349 352 351 351 352 351 351 352 351 349 350 351 348 347 348 348 349 348 348 348 348 350 352 351 350 350 349 349 349 350 350 350 350 350 351 351 351 351 351 352 353
354 357 360 362 365 364 362 356 357 363 363 365 365 366 366 366 362 358 359 356 357 356 352 350 349 354 352 349 351 351 351 353 353 354 353 353 353 352 353 353 354 355 356 356 356 354 351 349 348 347 345 343 341 341 344 349 352 351 350 351 352 352 352 352 350 348 349 350 351 349 348 349 349 347 346 348 350 351 352 352 350 349 349 350 350 350 350 350 351 351 350 350 351 352 352 353 352
356 358 360 362 364 363 360 357 361 365 366 366 363 364 364 365 363 359 360 358 356 354 352 350 352 357 354 352 353 351 352 354 353 354 354 353 352 353 355 354 353 354 356 356 355 354 352 349 347 345 343 341 340 342 347 351 351 350 351 351 351 351 352 351 350 349 349 349 351 350 348 348 350 349 348 350 351 352 352 351 350 349 350 351 351 351 351 351 350 350 350 350 350 352 352 352 353
359 359 361 363 363 359 355 354 359 364 367 366 363 363 363 363 363 362 361 359 356 354 354 351 354 356 353 355 354 351 353 353 353 353 353 352 352 354 356 355 353 354 355 355 355 354 352 348 345 343 342 340 340 344 349 352 350 350 351 351 351 351 352 351 350 350 348 349 350 349 348 348 349 349 349 351 351 352 351 349 348 349 351 351 351 351 351 351 350 349 350 349 350 351 351 352 351
361 359 359 361 358 350 348 350 358 365 366 365 364 362 362 362 363 363 361 359 356 355 354 352 356 355 353 355 354 352 353 352 353 352 352 351 350 352 356 356 354 354 354 353 354 354 352 347 343 342 341 342 343 346 350 351 351 351 351 351 351 351 352 351 350 350 349 349 350 348 349 349 350 350 351 351 351 350 348 347 348 350 351 351 351 351 350 351 350 349 349 349 350 351 351 351 350
361 361 362 361 355 350 352 353 358 365 366 366 365 362 361 362 363 363 360 359 357 357 356 355 357 353 354 356 353 353 353 352 352 351 351 350 350 351 355 356 355 352 352 353 352 351 351 349 345 344 344 346 348 349 350 351 353 352 350 351 352 351 351 351 350 349 349 350 350 349 349 350 350 351 351 351 350 349 349 350 350 351 351 352 351 350 350 350 349 348 348 348 350 351 351 350 349
360 363 364 363 358 357 358 355 359 363 364 367 364 362 361 361 365 363 360 359 358 361 358 354 354 351 355 355 354 352 351 353 351 351 350 349 350 351 353 355 355 353 351 351 349 349 350 350 349 348 348 349 350 350 350 351 354 353 350 351 352 351 352 353 351 349 350 350 350 350 350 351 351 351 350 350 349 349 350 350 350 351 351 350 350 350 350 350 348 348 348 349 351 351 351 350 348
360 361 360 361 357 358 358 354 358 357 360 367 364 361 362 362 364 363 362 364 363 361 357 353 352 353 355 355 355 351 350 352 351 350 349 350 350 350 351 352 353 353 351 349 349 350 351 349 350 351 351 352 351 350 350 351 354 353 351 351 352 352 353 352 351 350 351 351 351 351 351 351 351 350 350 350 349 350 350 350 351 351 351 351 351 351 350 349 348 349 349 349 350 350 349 349 347
356 354 359 362 357 359 360 357 355 356 359 366 363 361 362 361 362 361 361 364 363 358 355 354 352 354 354 355 355 351 352 352 350 351 350 351 350 349 351 350 351 352 351 351 351 351 351 348 350 354 354 355 355 353 351 351 353 354 352 352 352 352 353 351 351 351 351 351 351 351 352 351 350 349 349 349 349 350 350 350 350 350 350 351 351 351 350 349 348 348 349 349 349 348 348 348 347
351 353 363 363 353 352 355 359 355 357 361 364 362 361 363 362 361 362 360 361 361 358 357 355 352 354 350 351 354 352 352 352 350 351 350 350 350 350 350 349 351 353 353 352 352 353 352 350 352 355 356 357 358 356 354 353 354 354 353 353 353 351 352 352 352 352 351 351 350 351 352 352 350 349 349 349 349 350 350 349 349 350 349 349 349 349 349 349 348 347 347 348 348 348 347 347 347
349 355 362 355 347 348 352 360 357 356 362 364 362 362 364 364 362 362 361 362 361 357 358 354 351 352 347 349 353 353 353 352 351 351 350 350 349 350 350 350 353 354 354 353 353 355 353 352 354 355 357 357 355 355 357 355 354 355 353 352 351 352 353 352 353 352 350 350 350 349 351 351 352 352 351 350 349 350 350 349 349 349 349 349 349 349 348 347 347 347 346 347 346 346 345 346 345
351 356 360 352 349 351 351 359 358 359 365 363 362 363 364 365 364 362 361 363 361 358 357 353 353 351 348 352 353 353 353 352 352 351 351 350 348 349 349 351 354 355 354 353 355 355 352 353 354 354 356 355 350 353 356 355 354 355 354 352 351 352 353 352 351 351 351 351 351 350 348 349 351 352 352 351 350 349 350 350 350 349 349 350 349 349 347 345 345 345 345 346 346 347 347 347 345
351 356 357 355 354 351 351 358 357 360 364 362 363 361 362 365 363 361 363 363 360 359 359 355 353 350 349 351 353 353 352 352 352 351 351 349 348 349 350 352 354 355 355 355 356 354 351 352 353 353 354 353 350 353 353 352 353 354 353 353 353 354 354 353 350 352 353 351 351 351 349 348 350 351 351 351 349 349 349 349 350 349 349 349 347 348 346 345 345 346 347 348 350 351 350 349 348
349 354 355 353 352 350 349 356 358 360 361 362 363 361 362 363 361 362 364 364 361 359 358 357 353 348 349 349 352 353 352 353 352 352 351 348 348 349 350 352 355 355 355 355 355 351 350 353 353 353 353 351 351 352 352 353 354 355 354 353 355 356 355 354 351 352 354 352 351 351 351 350 350 349 349 351 351 349 349 348 348 347 348 347 346 346 346 346 347 348 348 350 352 352 351 349 349
348 352 355 351 351 351 346 351 357 359 360 363 363 362 362 361 361 363 364 365 364 362 356 355 352 349 349 347 350 352 352 353 352 352 350 348 347 348 349 350 353 354 354 354 352 348 351 356 355 355 354 352 351 351 353 354 353 355 356 353 354 354 354 354 354 353 353 352 349 349 351 351 350 350 349 352 354 352 351 350 348 348 350 350 350 349 349 349 350 350 348 347 348 348 348 349 348
348 350 352 351 349 349 347 345 352 358 360 363 363 363 363 362 363 362 363 365 364 362 358 353 351 349 348 347 348 350 350 351 351 350 348 348 347 346 348 348 351 352 352 353 350 347 352 357 357 357 357 354 352 351 354 354 352 354 355 354 353 353 354 354 355 354 354 351 347 348 350 349 349 351 350 351 352 354 354 352 350 350 351 353 354 352 352 352 351 351 349 345 343 343 345 345 345
347 349 349 348 347 348 346 341 345 357 361 363 363 362 362 362 365 362 361 363 361 360 357 350 350 350 349 348 347 347 346 346 348 348 346 346 346 345 346 347 349 350 351 350 348 347 353 357 357 357 357 356 354 352 352 353 352 354 354 354 354 354 355 354 354 355 355 353 350 350 351 349 349 351 352 349 349 352 354 352 350 350 350 353 355 353 352 353 352 353 351 346 343 343 344 344 345
345 348 348 347 346 345 345 342 341 351 361 364 361 360 361 362 364 363 361 363 361 358 356 349 350 352 351 347 345 346 345 345 347 347 346 345 345 345 345 346 348 348 349 348 346 348 354 357 356 357 357 357 356 353 353 354 354 354 355 355 354 355 355 353 352 354 356 356 352 350 350 349 348 351 353 349 348 350 351 351 351 351 352 354 354 352 352 352 353 354 353 351 348 347 346 346 346
343 346 347 345 345 345 344 341 340 347 357 359 359 361 361 359 361 362 363 362 359 357 354 349 349 350 349 346 345 346 345 345 347 346 346 345 344 344 344 347 347 347 347 346 345 349 355 356 356 356 356 356 356 353 353 355 354 354 355 355 354 354 353 350 350 353 354 354 353 351 350 349 348 350 351 350 349 349 349 350 351 351 353 353 351 352 352 352 353 353 352 352 351 350 349 348 348
341 343 346 346 345 345 344 340 339 346 353 357 362 363 361 358 359 362 363 361 356 354 352 349 349 349 348 346 345 345 344 345 347 346 345 344 343 343 344 346 346 346 345 344 345 350 355 355 356 355 354 354 354 353 353 355 354 354 355 354 354 354 352 350 351 352 352 352 355 355 352 349 349 350 351 352 352 351 351 351 352 351 352 352 351 352 352 352 352 352 352 351 352 351 350 350 349
338 341 343 345 345 345 343 339 338 344 351 356 362 364 362 360 360 362 360 360 355 353 352 350 349 348 348 346 345 346 345 345 347 346 344 344 344 343 344 344 344 344 343 343 346 351 355 354 354 354 353 354 354 353 353 355 355 354 355 354 354 355 352 352 352 351 352 352 354 356 355 351 349 350 352 353 353 352 352 351 352 352 352 351 351 352 353 353 353 353 354 353 352 351 351 350 350
338 340 341 343 344 343 342 340 338 343 353 358 362 363 362 362 361 362 360 359 355 355 355 352 348 349 348 346 346 347 346 347 347 345 344 344 344 343 343 343 342 343 342 344 349 352 354 352 352 353 352 354 354 353 353 355 356 355 355 354 354 354 353 353 352 353 354 353 354 356 357 354 351 353 353 353 352 352 352 352 351 352 352 352 352 354 355 354 353 354 354 354 353 351 351 350 349
336 340 342 342 343 343 341 340 341 344 354 358 361 363 365 365 361 361 359 358 357 357 356 353 350 348 347 348 347 346 347 348 347 345 344 344 344 343 343 343 342 342 342 345 349 351 352 350 351 353 353 355 354 352 352 356 356 356 355 354 354 354 353 352 352 354 355 355 357 357 359 357 354 355 355 353 352 352 352 351 351 352 352 352 353 354 356 355 352 353 354 354 353 350 350 350 349
334 339 340 341 339 340 342 342 342 344 353 358 359 359 364 368 361 360 357 357 359 359 357 353 351 348 347 348 347 347 348 348 347 346 345 345 345 344 343 343 342 341 343 345 349 350 350 350 351 352 353 354 354 351 350 354 356 355 354 354 354 354 353 352 353 354 355 356 357 357 360 361 359 358 356 354 353 353 354 351 351 353 353 353 353 354 356 354 353 353 354 353 352 350 349 349 348
333 335 337 340 330 331 343 342 342 345 350 359 357 351 358 366 362 360 357 358 362 359 358 354 352 350 347 348 348 346 347 348 347 345 346 347 345 344 343 343 341 341 343 346 349 350 349 350 350 350 353 353 354 352 350 353 355 354 354 353 353 354 352 352 353 354 354 355 356 357 358 360 362 360 354 353 353 353 355 353 352 353 355 355 353 355 356 353 353 353 353 353 352 350 349 349 349
331 328 327 334 327 330 347 342 342 348 349 355 351 344 353 364 361 361 359 358 362 360 359 355 354 352 348 349 348 346 347 349 348 346 346 347 345 344 343 343 342 342 343 346 348 349 349 349 348 349 352 352 354 354 351 352 354 354 354 353 354 355 351 351 352 353 353 352 355 357 354 354 359 358 354 355 354 352 353 354 354 353 355 356 353 355 355 352 353 354 354 354 352 351 349 349 350
329 328 321 325 326 330 342 342 341 348 351 354 351 348 355 363 361 361 360 359 362 361 360 356 355 354 350 349 348 347 347 348 348 347 346 347 346 344 344 343 342 342 343 345 347 348 349 348 347 348 351 352 354 355 352 352 355 356 355 354 354 354 352 350 349 352 352 351 355 354 349 350 353 356 355 355 354 351 351 353 354 353 355 356 352 353 354 352 352 353 355 355 355 352 348 349 350
321 327 324 325 328 327 331 340 343 346 351 354 353 353 357 361 361 360 360 360 361 360 360 356 355 355 353 351 348 348 348 347 346 347 347 347 346 345 345 343 342 343 343 345 346 347 349 348 346 346 349 351 353 356 354 352 356 357 355 354 354 354 352 351 349 351 350 351 355 351 349 351 352 356 355 353 353 352 352 353 355 357 356 356 354 352 352 352 351 352 353 355 357 355 347 348 350
317 321 322 322 327 326 329 336 342 346 347 351 352 351 358 360 361 359 359 362 360 358 359 358 355 355 355 353 350 349 348 348 347 347 347 346 347 346 345 344 343 343 344 345 346 346 348 347 346 347 348 349 352 355 355 352 355 356 355 354 354 354 352 351 350 350 349 350 354 351 351 353 354 357 354 352 355 351 351 352 354 357 357 358 357 354 353 354 355 354 355 354 355 355 350 349 350
324 325 323 321 322 323 334 341 343 347 345 351 353 349 358 359 359 359 357 361 361 359 359 359 356 355 355 353 351 350 350 348 348 348 348 347 347 346 346 346 344 344 344 345 347 347 348 348 348 349 348 349 351 355 355 352 353 354 354 354 354 355 353 353 352 351 349 350 353 354 354 355 355 359 357 356 356 352 352 353 354 356 356 358 358 355 354 356 358 358 358 356 354 354 353 351 350
330 329 325 324 323 321 334 345 344 347 342 346 353 351 357 356 357 360 356 359 362 360 360 360 358 356 355 353 352 351 350 349 349 349 348 348 348 347 348 348 346 345 344 346 348 348 349 349 350 351 349 350 352 354 353 351 351 352 353 353 352 354 355 355 354 352 351 351 354 356 356 356 358 361 362 360 357 354 355 356 357 359 357 358 358 356 356 357 359 360 358 357 356 354 352 350 350
333 328 324 322 323 323 332 342 341 345 341 341 348 349 351 354 357 358 357 359 361 360 361 360 359 358 357 356 354 353 351 349 349 349 349 348 348 347 348 349 347 346 345 347 349 348 350 349 350 353 351 351 352 352 352 350 350 351 352 352 350 352 355 354 354 353 351 353 356 357 356 359 361 362 363 363 359 356 357 358 360 360 358 359 360 360 358 358 358 359 357 356 356 354 350 348 349
333 330 324 319 323 327 331 336 338 341 339 339 345 345 343 351 357 356 355 354 355 357 360 360 361 360 358 357 355 353 352 351 349 349 350 348 349 348 348 349 348 347 347 348 349 348 349 349 351 353 352 353 352 351 352 351 350 349 350 351 349 350 352 353 354 354 352 353 356 357 359 361 360 361 362 362 361 359 360 359 358 359 360 359 361 361 357 357 358 358 358 357 356 353 349 347 348
332 329 321 318 324 324 320 327 335 338 336 337 341 340 340 347 356 355 353 347 349 353 356 360 361 359 359 357 356 354 353 353 352 349 349 349 349 348 348 349 348 348 349 348 349 348 348 350 352 354 353 353 352 351 352 351 351 350 350 350 350 350 351 353 355 355 353 354 355 357 360 361 358 358 360 358 358 361 362 360 357 358 361 361 361 361 357 357 357 356 357 358 356 352 347 346 348
330 330 323 320 325 323 321 327 332 334 334 337 338 330 330 338 348 352 350 346 347 350 355 358 360 360 359 358 358 356 354 353 353 351 349 350 350 349 349 350 349 349 349 349 348 348 347 349 353 354 354 354 352 353 353 352 352 352 352 352 352 353 354 354 356 356 354 355 355 356 359 360 358 358 359 358 359 361 362 363 361 359 361 362 361 359 357 356 356 356 358 358 356 353 347 345 347
322 328 328 326 329 327 328 330 329 324 323 332 334 320 320 332 339 343 344 346 348 350 354 356 358 361 360 359 359 357 357 356 354 353 351 350 351 350 351 351 350 350 350 350 347 347 347 349 353 355 355 355 353 355 354 353 354 354 353 353 353 355 356 355 355 355 354 354 354 354 357 357 357 357 358 359 360 361 363 364 363 360 359 360 361 359 357 357 356 356 357 356 356 355 349 345 346
316 323 329 330 332 329 328 327 323 316 317 330 333 320 317 325 332 340 346 347 350 351 353 356 359 361 358 359 358 355 358 357 355 352 351 351 350 351 352 352 352 351 351 350 347 346 348 349 353 355 355 355 354 356 356 354 355 356 354 353 352 353 354 353 353 354 354 352 352 354 356 356 356 357 357 360 361 361 364 364 362 361 359 359 361 360 357 356 356 356 355 357 359 356 351 348 346
317 325 329 329 332 330 328 326 320 318 322 328 330 325 317 318 331 347 351 351 355 354 354 357 359 361 358 357 357 355 357 357 357 353 351 352 351 351 353 353 352 351 351 350 347 347 348 351 354 355 355 355 354 357 357 355 356 356 355 352 350 351 351 351 353 354 355 353 354 355 356 356 357 358 357 360 362 361 364 364 361 362 360 358 359 358 356 355 356 357 358 361 361 358 356 352 348
324 330 329 329 333 333 331 326 320 321 321 316 321 324 318 319 335 349 352 352 356 357 356 357 358 359 358 357 358 356 356 358 357 353 353 353 352 353 353 354 353 351 350 350 348 348 349 353 356 356 356 355 355 358 358 356 356 356 355 352 351 351 350 351 352 354 356 356 357 358 358 357 357 360 360 360 361 360 361 363 362 363 361 359 358 356 356 356 358 359 359 360 359 357 357 356 352
329 332 330 330 331 331 331 328 321 320 318 312 316 319 317 321 332 339 347 347 350 356 354 353 356 356 357 358 357 357 356 356 355 355 356 356 354 354 354 355 353 350 351 351 350 349 351 354 358 358 357 356 355 358 359 358 356 356 356 354 352 352 351 352 353 354 356 358 359 360 361 359 356 357 359 361 362 360 360 361 361 361 359 356 356 358 357 357 359 359 358 358 359 359 358 356 355
329 331 331 330 330 330 329 327 321 317 316 314 315 317 319 325 331 335 343 346 347 352 351 350 352 353 356 358 356 356 357 356 355 355 356 357 355 354 354 355 354 351 351 352 351 351 353 356 359 360 359 357 357 359 360 359 357 357 356 355 354 354 353 353 354 355 356 357 360 361 361 360 356 355 357 358 359 359 359 359 358 359 358 355 357 360 358 356 357 359 359 359 360 361 360 356 355
329 331 329 324 323 324 322 320 320 317 315 315 317 319 316 321 331 341 346 349 349 350 350 351 350 349 354 355 356 356 355 356 356 355 356 358 356 355 355 354 353 352 352 353 351 352 354 356 360 362 360 359 358 360 360 358 358 357 357 356 355 355 355 354 354 355 355 357 357 360 362 360 357 356 357 355 354 357 359 359 358 359 359 358 358 359 358 357 356 357 360 360 360 360 360 357 355
330 328 323 317 316 317 316 315 316 316 315 315 320 320 313 318 334 345 348 348 348 348 349 349 349 349 351 350 353 355 353 354 356 356 356 356 356 356 356 355 355 353 352 354 353 352 354 357 360 363 362 361 360 360 360 359 358 357 357 357 356 356 356 354 355 354 355 355 354 357 362 362 360 358 357 354 353 357 359 359 359 361 362 361 361 362 362 361 359 359 361 361 360 360 359 358 356
328 323 318 315 314 315 316 315 315 315 314 315 320 319 316 325 340 346 347 346 346 347 348 348 350 350 350 349 350 353 354 354 356 357 355 353 356 358 356 355 355 354 353 354 354 352 354 357 360 363 363 362 362 362 361 359 358 358 358 358 357 357 357 356 355 353 352 354 353 355 358 360 359 358 357 356 356 358 359 359 359 361 363 364 364 365 365 365 363 362 362 361 361 360 358 356 355
327 328 324 317 314 315 316 315 314 314 313 315 318 317 317 326 339 344 345 344 344 345 345 348 350 350 350 350 349 351 354 354 354 356 355 356 358 358 357 357 356 355 354 355 355 354 355 357 361 363 363 364 363 362 362 361 359 358 358 359 358 357 357 356 354 352 351 352 353 353 355 357 357 356 357 358 358 359 360 360 359 359 362 364 364 364 364 365 363 363 365 364 362 360 359 356 354
325 328 324 317 317 318 314 313 313 312 313 312 313 318 324 332 340 344 343 342 343 344 345 347 347 348 350 351 351 350 351 354 354 354 355 357 357 356 356 356 356 356 355 355 355 355 357 359 362 363 364 365 364 363 362 361 360 359 359 360 358 357 357 355 354 353 351 351 352 352 354 357 357 357 358 358 357 359 360 361 359 358 359 362 363 363 363 365 363 363 366 366 363 360 360 358 356
321 322 319 321 326 323 314 312 313 311 312 312 312 321 332 336 340 343 342 342 343 343 344 344 345 348 348 350 354 353 352 355 354 354 355 357 358 358 357 356 355 356 357 355 356 356 357 360 362 364 364 364 364 364 363 361 361 360 360 360 358 357 357 355 353 353 352 351 352 352 353 355 357 358 359 358 358 358 358 359 358 357 358 359 361 362 362 365 366 363 364 366 363 360 361 361 359
320 317 319 325 327 324 318 314 313 312 312 311 311 319 326 329 335 342 342 343 343 343 343 343 343 345 346 348 353 354 354 353 354 355 357 359 360 357 355 355 355 354 356 356 356 356 357 360 361 363 365 365 363 363 362 361 362 361 360 361 359 357 357 354 350 351 351 349 351 353 351 352 355 356 357 357 358 358 358 358 358 358 359 358 359 361 361 364 367 363 363 365 363 362 365 364 361
322 319 323 325 317 315 317 316 315 313 312 311 311 317 322 323 329 339 341 342 343 342 344 343 342 343 343 345 350 351 351 350 352 355 355 358 358 356 355 354 355 355 356 356 356 356 358 360 359 360 364 364 362 361 360 360 361 360 359 361 360 358 356 354 350 350 351 349 349 350 349 350 352 352 354 355 356 358 357 358 357 357 358 358 359 360 359 362 364 362 362 363 361 363 365 364 362
322 321 324 324 318 315 316 316 317 313 312 313 311 316 323 326 333 341 340 342 343 342 343 342 341 341 341 341 344 346 347 347 350 355 355 356 357 357 356 354 355 355 354 354 356 356 356 357 357 358 361 363 361 359 359 361 361 358 358 360 361 359 356 355 352 350 351 350 349 349 348 349 349 350 352 354 355 356 355 357 356 354 355 357 357 357 357 360 361 360 361 360 360 363 363 361 362
318 317 318 319 319 320 318 317 317 313 313 313 311 320 330 334 339 343 340 341 341 340 342 341 340 340 339 339 340 341 344 344 346 350 353 355 355 356 355 355 357 355 352 353 354 354 355 355 357 357 358 359 358 356 358 361 360 358 358 359 361 360 357 355 353 352 352 351 350 350 348 348 349 349 350 353 355 355 354 355 354 352 352 353 355 356 356 358 360 361 361 359 360 364 364 362 361
319 317 318 318 317 317 315 315 315 312 313 312 313 326 337 338 338 341 338 339 339 339 340 339 338 337 336 336 336 337 340 340 341 342 345 350 353 354 355 355 355 355 354 355 354 354 354 355 355 355 354 355 356 356 358 359 359 358 358 358 359 360 359 355 353 352 352 351 351 351 349 348 348 349 350 350 353 354 353 354 353 352 352 352 354 356 355 356 359 360 361 359 359 362 363 362 360
Wind_Speed
9 9 8 8 9 9 8 5 3 3 3 0 1 1 5 5 7 8 7 8 6 7 8 10 9 5 7 11 13 13 11 8 5 4 7 11 21 21 19 22 21 19 19 19 19 18 17 17 16 14 14 14 14 14 14 14 14 13 12 12 11 11 11 11 11 11 12 17 19 14 9 7 9 6 5 7 8 8 8 8 9 9 9 10 11 10 11 12 12 11 11 12 11 10 10 9 12
9 9 8 7 9 8 4 3 3 2 2 1 2 2 5 4 7 10 8 8 7 10 11 10 9 9 13 13 13 15 14 14 14 12 12 21 24 20 21 22 20 20 19 18 18 17 16 16 15 15 14 14 14 14 14 13 13 12 12 11 10 10 10 10 10 11 14 18 17 11 7 7 9 8 6 7 7 8 9 9 9 10 10 11 11 9 10 12 12 11 11 11 11 11 9 9 11
7 6 8 7 8 7 3 3 4 1 1 2 3 2 4 4 7 10 8 9 11 13 12 11 10 5 9 13 13 14 13 15 20 16 15 24 21 21 25 22 22 20 19 18 17 18 17 16 16 16 15 14 14 14 13 13 12 12 11 10 9 9 10 10 10 12 15 19 16 10 7 7 8 8 8 7 8 9 10 11 10 11 10 11 10 9 10 11 12 11 10 10 11 12 10 9 10
4 6 8 7 6 4 3 3 3 1 1 2 3 2 5 7 9 9 8 11 12 13 11 11 9 3 6 15 14 14 13 14 20 17 14 20 20 24 26 23 24 20 20 20 18 19 18 18 18 17 15 14 14 13 12 12 12 12 10 10 10 10 10 11 11 12 16 19 15 9 7 8 8 8 8 8 10 11 12 13 12 11 11 11 10 9 10 11 11 11 10 10 11 12 11 9 9
6 8 7 6 3 2 2 2 2 1 2 0 3 4 6 8 10 9 9 12 12 12 12 10 10 8 10 14 11 10 13 14 19 19 16 21 24 26 25 24 25 21 20 21 19 18 19 19 18 16 15 13 13 12 12 12 12 11 10 10 10 10 10 11 12 12 16 18 13 8 8 10 10 10 10 10 11 12 13 14 13 11 11 11 10 9 9 10 11 12 11 10 11 12 12 9 9
8 7 6 6 4 4 3 3 1 5 3 1 4 5 7 8 10 12 11 11 11 11 12 10 12 14 12 12 10 10 12 14 17 18 20 25 27 26 24 23 23 22 20 20 19 18 19 19 17 16 14 13 12 12 11 11 11 10 10 11 10 10 10 11 11 12 15 17 11 7 9 10 11 11 11 12 12 13 15 15 13 12 12 11 10 10 10 10 12 12 12 11 12 12 13 10 10
6 4 4 6 4 3 4 4 1 5 3 3 7 7 8 8 9 12 12 12 10 8 10 11 13 13 11 10 11 12 15 16 16 20 26 29 28 27 24 22 21 22 20 19 19 19 20 18 17 15 13 12 11 11 11 11 10 10 11 10 10 10 10 11 11 12 14 15 11 8 9 10 10 12 13 13 14 14 16 16 13 12 12 12 11 11 10 11 12 12 12 11 12 12 13 12 12
6 5 2 4 4 2 5 3 4 4 4 6 8 7 9 7 8 11 11 11 9 8 11 12 12 12 13 13 11 13 17 18 21 26 30 29 28 26 23 22 22 21 20 20 20 20 19 18 16 14 12 12 11 11 11 10 10 11 11 10 10 11 11 11 11 11 13 14 12 8 8 10 11 12 14 14 15 15 16 16 14 12 12 12 12 11 10 11 11 11 12 12 12 12 12 13 15
6 5 2 3 4 3 4 2 6 5 6 8 9 8 6 3 4 9 11 10 10 11 11 12 13 12 14 16 13 12 16 21 26 29 28 28 27 24 22 21 22 22 20 20 20 19 18 17 15 13 12 11 11 11 11 10 10 11 11 10 11 11 11 11 12 12 13 14 12 9 8 11 13 14 14 15 15 15 16 17 15 14 13 12 12 11 11 11 11 12 12 13 13 12 13 15 16
4 4 3 3 4 3 1 3 5 6 7 8 10 8 4 2 2 4 10 11 12 12 11 13 15 14 15 15 11 11 17 23 27 27 27 26 26 24 21 20 21 23 22 21 21 19 18 17 15 13 12 12 12 11 10 10 11 11 11 11 12 12 12 12 12 12 12 13 12 10 10 11 13 14 15 15 16 15 15 16 16 15 14 13 13 13 13 12 12 13 13 14 15 14 15 16 17
3 3 2 3 5 3 3 4 6 7 7 8 9 6 5 5 2 5 9 11 12 13 11 11 13 15 17 13 9 14 21 24 25 27 26 24 25 25 21 19 20 22 23 22 21 19 18 17 15 13 12 12 11 11 10 10 11 11 11 12 12 13 12 12 12 12 12 13 12 11 11 12 13 14 14 15 15 15 15 16 17 16 15 15 14 14 14 14 14 15 14 15 16 15 16 17 17
5 3 2 2 5 4 5 5 7 8 7 7 7 4 4 5 5 9 11 10 11 13 9 9 11 13 16 12 9 16 22 23 24 26 25 23 25 25 20 19 19 21 22 21 20 19 18 17 15 14 12 12 11 10 10 10 11 11 12 12 12 13 13 13 13 12 13 13 13 13 13 14 14 13 14 15 15 15 16 16 16 15 15 15 15 16 16 15 16 17 17 17 17 16 16 16 17
4 5 4 1 4 3 6 5 6 8 7 5 5 4 5 6 6 8 8 9 12 12 5 7 12 13 14 12 10 14 19 22 24 25 23 22 23 24 22 19 19 20 21 20 20 19 18 17 15 14 12 11 10 10 11 11 10 10 11 12 13 13 13 13 13 13 13 13 13 14 14 14 14 14 14 15 16 16 16 16 16 15 15 16 17 17 17 17 18 18 19 18 17 16 15 16 16
4 5 6 4 3 2 6 4 4 7 5 3 4 4 4 4 5 3 2 4 11 9 3 5 11 14 14 12 10 11 16 23 24 24 23 21 21 23 23 21 20 19 19 19 19 19 17 16 15 14 12 11 11 11 11 11 11 11 11 13 14 13 14 13 13 13 14 14 13 14 14 14 14 14 15 15 16 16 17 16 16 16 16 16 17 17 17 18 19 18 18 17 16 16 15 16 16
5 5 6 5 5 3 5 4 3 6 7 8 6 5 3 1 4 2 3 3 8 7 5 6 9 10 13 14 11 13 19 25 25 23 23 21 20 21 22 22 22 20 18 18 18 17 16 15 15 14 13 12 10 10 10 11 12 11 12 13 14 14 14 14 14 14 14 14 14 14 14 14 14 15 16 16 16 16 16 16 17 17 17 17 17 17 18 19 19 18 17 17 17 17 17 17 17
4 5 5 3 3 3 5 5 1 5 8 10 10 8 5 1 4 5 3 3 5 8 7 7 6 6 13 15 16 21 26 27 24 23 23 21 21 20 20 20 20 19 17 17 16 15 15 14 14 13 13 12 10 10 10 10 11 11 13 14 14 14 14 14 14 14 14 15 15 15 14 13 14 15 16 16 17 16 16 17 17 17 17 17 18 17 18 18 19 19 18 18 18 18 18 17 17
3 4 6 2 2 5 5 6 3 4 9 10 10 8 9 5 2 2 1 4 7 12 8 6 6 5 13 18 23 28 28 26 24 24 23 21 20 19 18 18 17 17 16 15 14 14 14 14 13 13 13 12 12 11 9 9 10 11 14 14 14 14 15 15 14 14 14 15 15 15 14 13 14 14 14 16 18 17 17 17 17 18 18 18 18 18 18 18 19 19 19 19 19 18 18 17 16
5 5 4 2 4 5 7 7 4 4 9 11 9 6 8 8 4 5 2 4 5 10 10 10 6 5 16 26 29 30 28 27 25 24 23 21 19 18 17 17 16 16 16 15 14 13 13 14 13 14 13 12 14 12 10 10 9 11 14 14 14 15 16 15 15 14 12 13 14 14 14 14 14 14 13 15 18 18 17 17 17 18 18 18 19 18 19 20 20 20 19 18 18 18 16 14 15
6 6 3 2 5 5 7 9 7 5 8 11 10 8 7 8 9 8 6 6 8 9 12 13 11 13 22 29 29 29 28 26 25 23 22 21 19 19 17 17 16 16 17 15 14 13 13 14 14 15 13 12 15 13 12 12 11 11 13 13 13 15 15 14 14 13 11 11 12 13 14 13 13 13 14 15 18 18 18 18 18 18 18 19 20 21 20 21 20 19 18 17 16 15 12 11 12
5 6 3 3 5 5 8 10 10 7 10 11 10 11 9 8 9 7 8 12 11 10 13 14 15 21 23 25 27 28 27 25 24 22 21 20 19 19 18 17 16 15 16 15 15 13 13 14 15 15 13 11 13 15 13 13 11 10 11 12 12 13 15 13 13 13 11 11 11 11 13 14 14 14 15 16 16 16 17 17 18 19 19 19 20 20 19 19 18 16 15 15 14 11 9 9 9
4 5 2 4 3 2 6 10 13 10 9 10 9 10 9 8 6 6 10 11 8 6 9 14 16 22 24 23 26 27 26 25 24 22 20 20 19 18 17 17 16 16 16 15 14 13 13 13 13 15 14 11 12 15 15 12 10 9 9 10 10 11 13 13 13 12 12 14 14 12 13 14 15 14 13 14 13 13 14 14 15 16 16 16 15 14 14 14 13 11 10 11 11 10 8 8 8
5 4 2 2 1 2 3 6 14 13 8 8 8 8 8 7 5 4 4 4 6 4 4 14 17 19 24 23 24 24 24 23 22 22 21 20 19 18 18 17 16 16 15 14 14 14 14 12 12 13 13 13 12 14 15 13 12 11 9 8 8 9 9 11 12 11 12 17 17 13 13 13 14 14 13 13 12 11 10 11 12 12 12 12 11 10 10 11 10 9 8 8 10 10 9 8 8
6 4 2 2 0 2 2 4 11 14 11 9 8 7 7 7 6 5 5 5 4 4 5 13 18 19 24 23 22 22 22 21 21 22 21 21 20 19 19 18 17 16 15 14 14 15 14 13 13 12 11 12 12 13 13 13 11 10 9 7 7 7 8 9 11 11 11 14 14 12 12 12 13 13 13 13 13 11 9 10 10 10 10 10 10 10 10 10 9 10 9 9 10 10 10 9 8
7 4 4 4 2 1 2 3 5 11 12 8 8 8 8 7 5 7 7 1 5 6 6 12 18 20 23 22 20 21 21 21 21 21 20 20 20 19 19 17 17 16 15 15 15 15 14 14 13 12 11 10 11 12 11 11 9 9 9 7 7 7 6 8 10 12 11 10 12 11 10 10 13 12 11 13 14 13 11 10 10 9 9 8 9 10 10 10 10 10 10 9 9 9 10 9 9
10 6 4 3 3 3 1 1 4 11 11 7 9 9 8 7 4 6 6 3 6 8 9 14 18 20 21 21 21 20 20 20 21 21 20 18 19 19 18 17 16 16 16 16 15 15 14 15 14 12 12 10 10 10 10 9 9 9 8 7 7 6 6 8 9 10 10 10 10 10 10 10 13 13 12 12 12 12 12 11 10 10 9 8 9 9 9 9 9 9 9 9 9 8 9 8 8
9 9 6 4 5 4 2 2 4 11 10 8 10 9 8 7 5 4 1 2 7 9 12 16 18 20 19 19 20 19 19 20 21 21 20 19 19 19 18 17 17 16 16 16 15 15 15 15 14 13 12 11 10 10 10 9 8 8 7 7 7 6 6 8 8 8 9 10 9 8 8 9 12 12 12 12 11 11 11 10 10 10 9 8 8 8 7 8 8 8 8 8 8 8 8 7 7
4 10 9 7 8 4 4 3 3 8 11 11 10 9 8 7 5 3 4 6 8 11 13 16 17 19 19 19 18 18 18 20 21 21 20 19 19 19 18 17 17 16 17 16 16 16 15 15 14 14 13 11 10 10 10 10 9 8 7 7 6 7 7 6 7 8 8 9 10 9 7 8 10 12 12 11 11 10 10 10 10 10 9 8 9 8 7 7 7 7 7 8 7 7 7 6 6
4 8 8 10 10 7 8 5 4 7 10 11 9 10 9 5 4 5 5 7 8 12 13 15 17 17 18 19 17 15 16 19 21 20 19 19 18 18 17 17 16 17 17 17 16 16 16 16 15 14 13 12 10 10 11 10 9 8 7 7 7 7 7 6 6 7 8 9 9 8 7 8 10 11 11 11 10 9 8 8 9 10 9 9 10 8 7 7 7 7 7 7 7 7 7 6 5
6 7 8 10 11 11 10 5 4 6 9 13 10 9 8 5 6 8 8 8 9 13 12 14 16 17 17 17 16 13 15 19 19 18 19 19 18 17 17 17 17 17 17 16 16 16 16 16 15 14 13 12 11 11 11 10 10 9 8 7 7 8 6 6 7 6 7 8 7 8 7 8 9 9 10 10 10 9 7 8 9 8 9 9 9 8 7 7 8 8 7 6 6 6 7 6 5
8 9 9 7 8 9 9 6 5 5 12 18 10 4 4 5 7 11 11 10 10 12 12 14 14 15 16 15 15 14 15 17 17 18 18 18 18 18 17 17 18 17 16 17 16 17 16 15 15 14 14 13 12 12 12 11 10 9 8 8 8 8 7 6 7 6 7 7 7 7 7 6 7 7 8 9 10 10 7 8 9 8 8 8 8 9 7 6 7 7 7 6 5 6 6 5 5
9 10 8 6 7 7 10 8 7 6 12 17 9 3 4 6 8 12 12 12 12 11 12 14 12 13 15 15 15 15 15 16 18 19 19 19 18 18 18 17 18 17 17 17 17 17 16 15 15 14 14 14 12 12 12 11 10 10 9 9 9 7 8 8 7 7 7 7 7 6 5 6 6 5 8 10 10 10 7 6 8 9 7 6 6 7 7 7 7 6 7 6 4 5 6 5 5
10 9 8 9 7 5 9 9 8 7 10 12 7 3 4 6 9 11 11 11 11 9 12 14 14 13 15 15 15 14 15 17 19 21 20 19 18 18 19 18 17 17 17 18 18 17 16 15 14 14 15 14 13 12 12 11 10 10 9 9 10 7 8 9 8 9 8 8 8 6 6 6 5 5 6 6 7 9 8 6 7 8 8 6 5 6 6 7 7 6 6 3 1 4 4 3 5
10 9 8 10 9 5 7 9 9 7 9 8 3 4 4 4 7 9 9 11 11 11 13 16 15 14 15 14 14 14 14 16 18 20 21 20 19 18 19 19 18 17 17 18 18 17 16 15 14 15 16 14 14 13 12 12 10 9 9 10 10 8 8 9 9 10 9 10 11 8 8 8 6 6 4 3 5 8 9 8 6 7 7 7 5 5 6 7 7 6 4 2 2 4 2 1 4
9 9 9 10 12 9 7 9 10 9 9 9 6 6 6 6 8 9 11 13 13 12 12 15 15 13 14 13 13 15 14 15 15 19 22 20 19 19 19 19 18 17 17 17 18 16 16 16 14 14 15 14 14 13 12 12 10 10 9 10 10 8 8 9 10 11 10 10 12 10 8 9 7 6 5 5 6 6 7 8 7 6 6 5 4 4 6 6 6 7 5 3 1 3 3 3 4
11 11 10 9 12 13 9 8 10 10 9 10 9 6 8 9 8 8 10 13 14 12 8 10 14 13 13 13 13 15 15 15 16 19 23 21 20 20 19 19 18 17 17 17 18 16 15 15 14 14 15 15 14 13 13 12 11 10 9 10 10 8 8 9 10 11 10 11 12 11 8 8 8 7 7 6 6 5 6 8 9 7 6 6 5 5 6 5 5 6 6 5 2 1 4 4 4
13 13 12 11 12 12 9 9 9 10 9 9 11 9 11 11 11 11 12 13 14 13 7 6 12 13 12 13 12 14 15 15 17 21 23 22 21 20 19 20 19 17 17 18 18 17 16 15 14 14 15 15 14 13 13 13 12 11 10 11 10 9 8 8 8 9 12 13 12 11 9 8 9 9 8 6 5 6 7 7 8 7 6 6 5 5 6 6 5 4 4 5 3 2 3 4 4
10 13 14 14 12 10 10 11 8 8 8 7 10 10 12 12 12 13 12 11 10 13 14 11 12 12 12 13 13 14 15 15 18 22 23 22 21 21 20 20 20 18 18 18 18 18 17 17 15 15 15 15 15 14 14 13 13 12 11 11 11 10 8 8 8 7 10 12 11 11 11 9 8 7 7 6 5 6 6 7 6 5 6 5 3 3 4 5 5 4 4 4 3 3 3 3 3
11 11 13 13 10 8 7 11 10 8 7 5 7 7 11 12 9 8 10 11 10 11 15 13 12 11 11 12 13 14 13 14 18 20 22 23 22 22 21 20 20 20 19 19 19 18 17 17 17 16 16 15 15 15 14 13 13 12 11 11 10 10 9 9 9 7 7 10 10 9 9 8 7 6 6 6 5 5 5 5 6 5 5 5 3 3 3 4 5 4 5 4 3 3 3 3 3
11 8 9 11 9 5 4 8 9 8 6 7 9 7 7 12 14 9 11 11 10 9 10 10 11 12 11 12 12 12 13 14 16 18 21 23 23 23 21 20 21 20 20 20 19 19 18 17 17 17 16 16 15 14 14 13 13 12 11 10 10 9 9 8 7 7 6 8 9 7 7 8 7 6 5 6 5 5 4 5 6 5 4 5 4 4 5 5 5 5 5 4 3 3 3 3 3
10 7 8 10 11 8 4 7 11 9 7 8 10 8 6 11 17 15 15 13 11 11 10 8 9 10 11 11 11 11 13 15 16 18 20 22 23 23 21 20 21 21 20 21 20 20 19 18 18 18 17 16 15 15 14 13 12 12 10 10 9 8 8 7 6 7 6 7 9 7 6 7 6 6 6 5 5 4 4 4 5 5 5 5 4 5 6 6 6 6 5 3 3 3 4 3 3
10 11 10 9 12 13 4 4 11 10 9 7 6 8 7 9 13 14 13 12 12 13 13 10 8 9 9 11 11 9 11 14 16 17 18 20 22 23 23 21 21 21 21 22 22 21 20 20 20 19 18 17 16 15 15 14 13 12 11 10 9 7 7 8 7 7 7 7 7 7 7 7 6 6 6 5 5 5 5 3 4 5 5 5 5 5 6 6 6 6 4 4 4 2 3 4 3
9 12 13 11 13 13 5 3 7 7 8 8 6 6 6 10 12 12 12 11 12 13 14 12 10 10 8 9 11 8 6 9 13 17 18 20 23 23 23 23 22 22 22 22 22 22 21 21 21 20 19 18 17 17 16 15 14 14 12 12 11 9 8 9 8 8 8 7 7 8 8 8 8 7 7 6 5 5 5 4 4 4 5 5 5 5 5 6 6 6 5 5 3 1 2 4 3
7 10 13 14 13 13 12 7 7 6 6 10 11 7 3 8 8 8 10 9 10 13 14 13 10 10 10 9 9 8 6 6 11 15 17 19 23 24 24 24 23 23 22 22 22 22 21 22 22 21 20 18 18 18 18 16 15 15 14 13 12 11 10 9 8 7 7 7 7 9 8 8 9 7 7 7 6 6 5 5 5 4 5 5 4 4 5 6 6 6 6 4 2 2 2 3 3
8 9 15 13 11 10 12 10 8 8 4 6 10 9 5 5 5 7 7 7 8 10 13 13 10 10 11 10 10 9 9 10 12 13 15 18 21 23 24 24 23 23 23 22 22 22 22 22 23 22 20 19 18 19 19 18 16 15 15 14 12 11 10 9 9 7 7 6 7 8 8 8 8 7 8 8 7 6 6 5 6 5 5 5 5 5 5 6 6 5 5 4 3 3 3 2 2
5 3 10 11 7 7 7 7 9 10 7 6 9 10 6 5 6 6 6 7 6 7 10 13 13 11 11 11 10 9 11 13 13 11 13 17 21 23 24 24 23 23 23 23 23 23 23 23 23 23 21 20 19 20 20 19 17 16 15 14 13 12 10 9 10 8 7 7 7 8 8 9 9 7 7 8 7 7 6 6 6 5 5 5 6 6 5 5 6 6 6 5 4 4 4 3 2
3 5 3 7 9 10 7 8 9 8 10 9 9 11 7 3 6 7 6 6 6 6 7 9 12 12 11 10 8 9 10 9 10 8 8 15 22 24 23 24 24 23 23 23 22 23 23 23 23 23 21 20 20 21 21 20 18 16 16 15 14 12 11 10 10 10 9 8 8 8 8 8 9 8 8 8 8 8 7 7 6 6 6 6 5 4 5 5 6 7 6 6 5 5 4 4 4
7 6 4 7 8 11 8 8 8 8 10 10 10 14 11 3 3 5 4 4 3 4 6 5 8 11 11 11 10 11 10 9 9 8 8 18 23 23 24 24 24 24 23 23 23 22 23 23 23 24 22 21 21 21 22 21 19 18 17 16 15 14 12 11 11 11 11 10 9 9 8 8 8 8 9 9 8 8 8 7 7 6 6 6 5 4 5 6 6 7 6 6 6 5 5 5 5
11 5 5 8 7 7 7 7 8 8 10 11 12 15 14 7 3 5 6 4 3 2 3 3 3 7 8 11 13 13 13 12 11 10 12 18 19 21 24 24 24 24 23 23 23 23 23 23 24 24 23 21 21 22 22 21 20 18 17 16 16 15 14 13 12 12 12 12 11 9 9 9 8 7 8 8 8 9 9 8 7 6 5 5 5 5 5 5 5 6 6 6 6 6 6 5 5
11 8 7 9 8 7 8 8 8 8 9 11 14 16 12 5 6 8 8 6 6 4 3 4 2 2 4 8 12 13 13 12 12 12 13 14 13 17 23 24 24 25 24 24 24 23 23 23 24 24 24 22 21 22 22 22 21 19 18 17 16 16 15 14 13 13 12 12 12 11 10 9 9 8 8 7 8 9 9 9 8 7 6 5 5 4 4 4 4 5 6 6 7 7 6 6 6
11 10 9 9 8 8 9 8 8 8 9 10 13 15 8 7 8 8 10 8 7 7 6 6 4 2 2 5 8 11 11 13 12 11 12 12 10 13 18 22 24 24 25 25 25 25 24 24 24 24 24 23 22 22 22 21 21 20 19 17 16 16 15 15 14 13 13 12 12 12 12 11 11 10 9 8 8 8 9 9 9 8 7 6 6 5 5 5 5 4 5 6 6 6 7 6 7
12 11 10 10 8 7 7 8 8 8 9 10 12 12 7 8 8 7 10 9 8 8 7 7 6 3 2 2 6 10 11 12 11 9 10 10 9 12 14 16 20 23 25 25 24 24 24 24 25 25 24 24 22 22 21 21 21 20 19 18 17 16 16 15 14 13 13 13 13 13 12 11 10 10 10 9 8 9 9 9 9 9 8 8 8 7 6 6 7 5 5 5 5 6 7 7 7
12 11 11 10 9 8 6 8 9 8 9 10 9 4 4 8 11 11 10 9 9 9 8 8 8 6 4 4 4 5 9 10 10 11 10 10 14 17 15 15 18 19 22 24 23 22 22 23 24 25 24 24 23 22 21 21 20 19 19 19 18 17 16 15 15 14 14 14 13 13 13 11 10 10 11 11 11 10 10 10 10 10 10 9 9 9 8 7 8 7 6 6 6 6 7 7 7
7 10 12 10 10 10 8 9 11 10 9 9 9 6 7 8 10 11 11 11 11 9 9 9 10 10 6 6 8 5 4 6 6 8 10 11 13 11 8 12 17 19 20 22 21 20 21 21 22 23 23 23 23 22 22 21 20 19 19 19 19 18 17 16 16 15 15 14 13 13 13 13 11 10 11 12 12 12 11 11 10 10 11 11 10 10 9 8 8 8 7 7 6 6 6 6 6
6 7 10 10 12 11 8 6 8 11 10 9 12 12 10 8 7 8 10 11 10 9 10 9 10 11 8 7 10 8 7 5 3 6 8 8 8 6 2 9 14 19 22 19 18 19 20 19 21 22 23 23 23 23 22 21 20 20 19 20 20 19 18 17 16 16 15 15 15 14 13 14 13 13 12 12 12 12 12 11 11 10 11 11 11 11 10 9 8 8 7 7 7 6 5 6 6
11 6 5 8 12 11 7 6 7 11 10 9 14 15 11 8 7 7 7 7 9 8 8 9 10 11 9 7 9 9 9 7 2 6 8 6 7 11 10 12 19 16 16 15 15 18 19 19 21 23 23 24 24 23 22 21 21 20 19 20 20 19 19 18 17 16 16 16 16 15 15 14 14 14 14 13 13 13 13 12 12 11 11 12 11 11 11 11 10 9 8 8 8 7 6 6 6
14 9 8 10 9 8 8 7 8 9 9 9 12 13 7 4 6 8 6 6 7 6 6 8 10 10 8 7 7 9 9 8 7 4 6 3 4 9 14 19 22 14 12 15 14 15 18 19 21 23 22 23 24 24 23 22 22 20 19 20 20 19 19 18 17 17 17 17 16 16 16 15 15 15 14 14 14 13 13 13 12 12 12 12 12 12 11 11 11 10 9 8 8 9 8 7 7
12 9 8 9 7 6 8 10 9 8 8 8 9 8 6 5 6 8 8 7 6 6 6 7 9 10 10 9 8 7 7 8 10 8 6 4 6 11 13 16 15 12 14 17 13 12 16 17 19 21 22 25 26 26 25 23 22 21 20 20 20 20 20 19 18 19 18 17 17 17 16 16 15 15 15 15 15 14 14 13 13 12 12 12 12 12 12 12 12 11 10 9 8 9 9 8 8
6 8 10 11 10 8 8 10 11 9 8 8 6 6 6 4 5 7 8 7 7 6 7 8 9 11 10 11 10 9 9 9 10 10 10 9 8 10 12 10 5 9 13 14 12 14 15 13 15 19 23 25 25 23 23 22 21 21 20 20 20 20 20 20 20 20 19 19 18 17 17 16 16 16 16 16 16 16 15 14 14 13 13 12 12 12 12 12 12 11 11 10 9 10 10 9 9
Wind_Direction
166 178 190 210 215 216 213 214 251 218 221 168 149 121 101 111 126 127 130 133 111 98 100 97 91 65 83 91 90 71 51 66 65 102 107 125 140 142 137 132 133 132 130 129 128 128 131 130 125 125 125 124 122 119 117 117 117 115 110 104 97 93 94 95 97 96 92 85 81 81 86 91 94 103 112 103 109 107 98 101 108 107 98 91 93 101 105 109 111 111 113 111 107 101 100 105 106
185 198 198 210 214 221 231 211 244 216 205 106 86 82 103 126 135 121 117 120 111 111 109 104 95 86 97 102 98 78 60 65 79 90 105 132 137 137 137 135 135 131 127 128 129 130 133 131 127 128 128 126 124 122 120 119 116 109 103 97 94 93 93 94 94 92 86 83 83 86 90 102 111 120 116 106 111 104 95 94 98 104 104 100 101 114 119 112 108 108 109 111 108 101 99 97 98
202 199 193 210 223 222 255 236 248 298 181 153 85 84 127 127 110 98 100 113 117 117 110 105 92 67 89 93 85 81 81 81 95 102 118 136 135 139 143 138 134 130 128 129 130 131 133 134 131 131 130 127 125 124 121 117 111 102 98 98 100 98 95 93 89 86 83 83 85 89 89 95 107 115 111 106 102 94 96 97 96 100 104 103 106 118 119 114 109 106 106 109 108 104 97 88 91
232 208 206 226 232 216 238 239 252 317 85 114 93 116 122 109 104 101 114 122 122 119 111 107 93 40 75 88 88 86 96 99 107 114 126 138 136 141 142 136 132 131 133 131 129 127 131 135 131 130 129 127 126 124 120 114 106 101 102 105 102 96 93 90 84 81 83 87 91 98 97 95 103 109 109 106 95 93 99 101 103 104 107 108 112 118 117 119 113 107 107 107 106 105 99 90 94
230 209 222 252 260 255 243 250 269 49 61 94 116 126 118 113 120 122 125 126 125 117 112 112 98 88 73 77 90 94 108 112 113 117 122 133 136 138 138 136 133 133 134 129 125 124 130 133 128 128 128 129 127 122 118 111 106 106 109 105 98 94 93 89 84 80 85 91 98 111 109 105 109 112 110 103 95 97 100 100 104 109 112 114 117 116 114 119 113 109 112 110 107 107 105 103 102
220 211 222 239 264 294 269 263 296 78 70 143 120 118 122 121 125 128 130 126 121 117 119 116 104 98 79 68 77 92 115 117 112 119 127 134 138 137 136 137 134 132 130 125 124 125 132 132 127 129 129 130 126 121 118 113 110 111 109 100 98 97 94 89 84 82 87 94 102 113 109 108 111 112 108 101 100 100 98 98 104 107 106 110 115 112 109 113 111 111 112 110 110 110 109 109 103
221 234 224 236 259 279 268 270 359 86 75 87 112 120 124 129 131 131 131 128 117 117 122 115 112 107 93 86 82 90 108 114 116 126 131 135 138 137 136 135 132 127 124 123 125 129 134 131 128 131 131 130 124 123 121 116 115 110 103 98 99 94 91 88 86 85 90 96 101 104 107 109 107 106 105 102 101 99 98 98 100 99 98 102 105 103 104 108 107 108 108 106 106 107 110 107 99
226 244 231 257 269 254 268 300 53 77 92 91 106 119 119 131 140 134 134 130 122 123 125 120 115 101 94 98 95 99 106 112 120 124 129 134 137 136 135 135 130 123 122 123 126 133 134 129 130 132 131 128 126 126 123 120 114 108 103 101 99 93 93 92 90 90 94 101 103 103 107 106 100 99 101 99 97 96 98 98 97 93 93 97 100 101 102 103 104 105 105 104 103 103 106 103 98
234 240 231 258 278 280 274 62 75 68 92 96 100 108 107 118 136 139 138 128 132 133 120 112 105 97 100 98 97 105 107 115 122 124 129 134 135 131 131 134 130 125 126 126 127 133 132 131 133 132 129 128 131 129 125 120 112 110 108 104 102 99 100 98 95 95 98 103 106 107 103 100 101 100 97 97 97 95 95 96 98 95 94 95 98 102 103 104 104 105 103 103 103 102 101 98 98
239 234 265 286 278 277 304 78 92 76 82 89 95 106 111 118 89 150 145 134 143 128 95 97 106 110 110 102 102 110 116 125 127 127 131 134 132 128 129 131 130 128 129 130 130 132 132 133 133 131 132 134 134 131 127 119 116 115 111 105 104 105 104 101 100 100 101 102 105 107 102 100 104 102 97 96 97 95 94 96 99 101 100 98 99 100 102 105 104 104 104 104 104 101 98 97 99
250 223 271 300 276 293 27 61 91 85 89 92 92 100 121 142 167 187 155 146 147 120 104 109 112 114 109 103 103 114 124 132 132 131 134 135 131 130 130 128 130 130 129 131 131 131 132 134 134 135 137 136 135 131 128 123 122 118 111 107 105 107 107 104 104 104 104 102 103 104 104 104 103 101 97 96 97 97 96 96 97 99 100 100 100 100 103 103 102 103 104 107 106 102 99 99 101
271 266 244 262 291 347 48 69 91 93 91 91 96 106 140 156 187 171 152 156 138 107 110 125 127 123 111 107 109 122 131 135 134 133 136 137 131 130 131 129 131 130 129 132 130 132 134 135 136 138 138 136 135 131 131 125 121 117 113 113 111 112 111 108 107 106 105 103 104 103 104 104 103 102 100 100 100 99 97 96 96 97 98 100 101 101 102 102 102 103 105 108 106 103 101 101 100
262 278 283 261 296 7 81 90 109 112 94 85 115 153 162 162 182 159 154 169 131 99 90 118 134 126 108 110 121 132 136 137 136 135 137 138 132 130 129 129 131 130 132 132 131 133 135 135 136 137 138 136 133 131 132 127 121 119 116 118 118 116 114 111 108 108 106 104 105 106 107 106 106 106 104 103 101 100 100 99 97 98 98 100 102 102 102 102 103 103 105 106 105 105 104 101 100
250 273 295 295 309 32 92 98 135 117 101 117 125 144 156 169 163 129 226 163 105 100 103 114 124 114 112 122 132 141 139 140 140 138 138 136 133 131 129 128 130 132 133 132 132 134 136 136 134 136 136 134 132 129 129 128 126 122 118 121 121 118 115 113 110 109 108 107 105 106 110 109 109 108 106 104 102 102 102 101 99 99 100 100 102 103 104 102 101 103 104 105 106 106 102 99 99
258 283 294 295 332 23 94 94 135 112 115 134 133 138 133 181 140 134 242 108 89 122 144 142 127 116 137 140 141 147 143 143 142 140 138 135 134 132 132 132 134 134 133 133 134 135 136 134 132 135 135 132 132 128 129 129 125 123 122 122 121 119 116 114 113 111 111 111 110 110 110 111 113 110 107 105 103 102 103 103 102 103 104 103 104 106 108 104 103 105 107 107 106 103 99 98 99
259 292 288 271 338 353 82 74 80 119 120 127 135 144 129 151 164 165 183 155 151 143 141 151 138 143 151 143 140 143 142 143 143 141 138 136 135 132 133 134 134 132 132 135 135 136 135 133 133 134 134 134 132 129 132 128 124 126 126 124 122 120 116 115 115 114 114 114 113 113 112 112 112 109 108 107 104 103 104 104 104 106 106 105 105 106 107 107 107 107 107 105 103 100 98 99 102
257 261 272 272 29 358 42 53 10 107 122 130 145 154 144 154 197 119 75 254 176 137 143 134 116 163 147 136 139 139 141 143 144 143 138 139 138 137 136 135 136 133 135 137 135 137 134 134 136 134 135 135 133 129 127 125 128 133 129 126 123 119 117 116 114 112 116 119 116 111 114 115 112 110 110 108 105 104 104 104 107 108 107 106 105 105 106 107 108 106 106 103 102 101 99 100 105
245 249 268 323 52 25 29 58 59 107 133 141 153 171 154 153 167 139 117 269 170 140 148 120 111 166 131 131 138 139 143 145 147 146 142 144 144 142 141 141 143 138 139 139 138 141 136 137 139 137 136 135 134 129 125 128 133 136 131 128 124 121 119 116 117 119 119 120 118 113 114 116 115 114 111 109 106 104 106 105 107 107 106 107 106 106 105 104 105 104 104 103 100 98 98 103 106
242 274 281 16 62 57 51 77 98 120 135 139 154 170 162 158 162 154 150 173 170 155 136 122 136 140 127 132 139 142 146 149 149 149 148 150 148 146 145 145 146 143 142 141 142 144 139 140 142 139 138 138 135 128 129 136 139 141 136 132 129 127 125 124 125 126 118 111 115 116 114 115 115 114 114 113 108 105 106 106 107 108 107 106 105 106 105 103 102 101 101 99 98 98 104 112 112
224 254 278 53 66 63 68 91 112 127 137 144 163 160 158 180 164 151 169 164 163 155 131 130 138 132 132 138 143 146 148 150 150 152 154 151 149 148 147 147 147 147 144 142 144 146 143 144 145 142 143 141 132 128 135 140 143 150 145 137 137 139 137 134 129 122 118 115 115 113 112 117 116 114 115 112 108 105 103 105 107 107 106 103 101 102 103 102 100 101 101 99 99 106 115 117 119
221 235 308 74 103 64 69 93 114 129 141 145 167 152 154 195 169 165 185 158 139 151 135 135 139 137 141 144 147 151 150 150 151 154 156 153 151 149 148 148 147 147 144 142 144 144 145 146 144 143 144 140 130 133 140 142 143 147 151 141 137 142 135 130 130 125 128 128 120 117 119 120 119 118 115 110 112 114 110 108 108 109 112 109 103 102 104 103 99 103 108 108 109 115 118 115 115
260 262 13 79 141 67 72 82 107 123 136 140 170 160 155 178 172 188 181 114 123 185 174 142 145 145 145 147 150 153 152 152 155 157 157 155 154 151 150 148 145 145 143 144 145 144 146 145 144 144 144 141 135 135 141 147 144 137 140 138 128 131 127 124 131 128 129 129 123 126 130 121 118 120 117 114 116 118 117 115 114 117 121 119 116 109 107 109 106 106 113 116 113 111 109 108 107
253 252 196 201 112 84 95 59 102 127 140 154 170 152 146 157 173 172 107 49 125 214 245 150 146 150 148 150 152 154 155 155 158 158 158 156 155 155 152 148 147 147 144 146 147 144 146 146 145 147 144 141 139 137 142 147 145 135 130 132 125 122 128 128 128 122 120 125 122 125 130 121 118 121 122 119 115 115 115 111 114 115 112 120 128 118 110 113 112 108 110 110 108 107 108 107 104
242 248 198 189 162 177 125 80 104 118 127 152 156 143 158 164 171 150 119 92 177 203 227 145 144 153 149 152 156 156 155 157 158 157 158 156 155 155 152 147 148 147 147 150 149 146 148 148 146 148 145 141 141 139 141 141 139 135 130 131 128 125 131 125 122 120 118 120 119 122 127 120 115 116 117 112 109 112 112 110 111 108 105 111 115 110 109 111 109 110 112 111 110 112 113 113 110
227 238 219 196 199 221 172 137 122 110 115 145 151 153 168 161 154 138 135 178 164 171 170 140 145 154 151 155 157 156 156 157 157 157 158 156 154 153 151 147 147 149 150 152 149 147 149 149 148 149 147 143 144 142 138 135 133 133 132 130 128 129 126 119 119 118 118 117 115 123 130 127 122 118 116 113 111 108 108 110 106 100 97 94 94 98 105 105 105 108 110 111 112 113 112 113 114
213 224 237 232 226 220 215 233 141 120 123 150 155 159 160 142 134 125 169 218 146 147 147 141 150 153 154 157 157 157 157 157 157 159 157 155 156 155 151 150 152 153 152 152 149 148 149 150 150 149 148 147 146 143 137 134 134 134 132 129 129 127 117 116 121 118 119 117 109 110 114 123 125 118 114 114 112 109 112 115 113 109 100 97 100 99 98 99 104 105 105 108 106 106 107 108 112
219 224 234 243 253 250 224 229 157 127 126 147 155 150 148 138 137 142 269 242 160 145 143 143 151 153 156 157 156 159 159 159 159 159 157 155 159 157 152 153 156 154 152 153 149 150 153 152 152 150 148 148 146 143 138 136 138 136 131 133 131 123 118 118 118 114 110 107 107 103 94 107 115 112 111 109 109 111 114 115 115 114 107 105 104 98 93 92 98 96 93 98 98 99 102 103 108
259 238 237 237 249 249 227 219 175 151 134 142 142 134 142 140 153 162 198 218 166 144 146 149 152 153 157 155 154 161 161 160 160 160 159 157 160 160 155 154 155 153 155 155 150 152 157 154 152 150 149 148 148 146 140 141 141 140 138 137 131 123 125 123 114 109 105 103 108 106 90 98 110 112 112 113 115 112 110 109 104 102 101 99 97 99 101 96 97 95 89 92 98 102 103 105 110
249 244 241 226 230 236 221 199 168 171 137 129 118 116 149 168 172 164 172 197 164 147 151 153 153 152 157 155 154 164 161 159 163 163 160 158 162 161 157 157 155 155 156 153 151 156 157 154 151 151 152 149 150 150 146 145 144 144 144 138 135 133 131 125 119 113 111 110 110 110 98 98 110 113 113 116 118 115 116 118 108 102 102 100 103 111 109 100 102 102 96 96 103 107 108 112 115
238 236 239 224 226 227 197 167 172 174 131 134 135 108 178 185 164 164 172 183 160 154 162 158 157 155 156 157 157 163 161 162 165 163 162 160 163 162 159 159 156 156 155 152 156 159 156 153 154 154 154 152 152 153 151 148 147 149 146 142 143 143 138 131 128 122 118 116 113 111 101 95 101 108 119 120 119 121 125 129 124 115 111 113 117 115 108 105 103 102 100 102 110 112 113 118 117
231 230 227 225 233 204 173 168 180 174 128 144 165 125 162 172 164 171 172 174 158 163 177 159 155 161 158 159 161 162 162 166 166 164 165 163 164 164 162 161 159 158 155 154 158 158 156 156 157 157 156 156 155 154 155 151 151 151 148 146 150 152 145 142 138 129 126 126 116 108 104 100 93 106 124 118 123 131 130 131 123 120 122 119 116 110 108 105 101 102 104 108 115 112 112 112 111
222 227 212 217 235 179 164 175 181 179 133 152 185 102 126 156 167 181 172 168 158 178 196 160 152 171 164 161 163 163 163 167 168 167 167 166 167 166 163 163 161 159 157 156 157 159 158 157 159 158 157 159 155 155 157 153 153 152 150 151 152 157 151 152 150 131 135 145 133 133 140 131 114 116 124 117 131 137 130 126 117 121 119 105 115 120 114 106 103 106 102 108 119 100 107 114 115
211 225 219 211 217 188 173 189 187 174 138 147 175 106 120 155 174 186 177 175 169 192 202 161 156 174 166 165 167 165 165 167 170 169 167 169 168 167 164 164 163 160 160 158 158 161 158 157 163 160 159 162 156 156 159 157 156 150 153 156 154 161 155 148 150 145 155 156 146 152 153 144 132 121 136 136 121 122 127 130 122 123 112 104 125 122 115 117 119 121 100 91 91 84 94 125 119
199 214 227 214 210 208 185 186 181 166 160 160 147 126 134 157 181 192 192 188 182 198 198 158 156 171 165 170 170 166 168 168 172 171 168 170 168 167 165 164 164 160 161 161 160 164 160 160 165 159 160 163 158 157 160 161 158 153 158 159 159 168 158 140 144 154 164 156 150 159 151 140 137 135 169 164 123 125 139 133 125 128 118 116 136 121 124 133 135 140 128 127 122 100 146 160 124
199 203 225 217 215 222 187 171 177 173 188 167 148 148 142 152 178 201 212 200 185 188 194 161 158 168 168 174 174 169 171 171 173 171 169 169 168 168 165 164 166 163 164 163 160 164 161 161 163 158 161 164 161 160 161 163 162 162 163 162 166 173 165 151 148 151 157 158 154 156 150 143 150 161 175 158 124 140 150 132 129 143 142 141 169 160 144 147 145 148 144 150 166 125 152 148 123
209 204 221 222 216 221 168 138 164 179 203 173 161 168 154 167 180 190 213 212 190 165 166 189 167 166 171 174 178 172 172 172 172 172 170 169 169 168 165 165 168 166 165 163 161 166 163 162 164 160 164 164 163 164 165 167 168 172 171 167 172 176 169 161 157 153 157 162 153 149 158 158 162 166 163 151 139 150 151 136 133 145 149 151 182 171 151 161 161 154 148 155 168 153 149 139 126
244 212 216 228 221 219 174 141 150 191 217 189 181 172 154 172 174 173 193 203 197 163 167 190 170 168 174 172 179 174 173 173 171 173 171 171 171 168 165 167 170 167 166 165 164 168 166 165 167 166 167 165 166 170 172 173 172 177 178 173 175 177 175 166 163 164 161 157 147 150 160 156 154 155 149 150 157 153 138 131 131 141 153 154 175 164 146 157 162 161 151 164 189 170 160 150 128
269 229 210 223 221 224 189 151 155 194 218 205 209 190 157 164 155 169 186 179 196 180 171 178 166 173 176 167 178 175 173 173 170 173 174 173 171 169 168 168 172 170 168 169 168 170 169 168 169 169 170 170 172 174 176 178 177 179 181 178 178 177 177 172 167 172 165 150 146 153 153 143 142 142 143 143 151 157 132 129 140 148 160 158 160 162 151 159 167 175 165 177 199 164 164 157 126
254 243 210 220 213 186 126 140 165 187 203 199 203 211 182 159 144 170 197 177 184 182 169 176 173 177 176 168 174 174 176 175 173 175 175 175 172 170 170 170 174 174 171 172 171 171 172 172 171 171 173 174 177 177 178 181 180 182 181 178 179 176 176 176 166 167 167 151 152 160 149 141 144 142 146 146 151 159 141 143 151 151 160 160 166 171 169 175 176 182 183 187 192 160 170 160 150
241 243 212 216 211 199 169 171 181 187 220 219 190 201 219 168 149 168 198 182 164 166 169 187 190 181 178 173 166 173 183 177 175 178 176 176 174 172 172 172 175 174 173 175 174 173 174 175 172 173 176 176 179 178 179 183 179 180 182 180 179 172 175 175 159 165 171 154 155 164 154 148 154 149 151 156 155 148 145 159 155 149 157 162 173 175 173 178 177 186 188 186 195 174 169 164 159
228 237 227 216 210 215 219 174 177 181 226 241 190 197 207 178 166 171 185 175 159 162 165 174 195 190 184 177 164 170 191 184 177 179 178 175 175 175 172 174 177 176 177 178 177 177 176 176 174 174 177 178 180 178 179 182 178 179 180 180 178 166 172 175 168 173 175 170 167 166 162 159 160 155 154 161 155 150 159 170 153 152 162 168 175 175 176 177 175 187 181 175 204 186 155 161 151
219 229 237 240 224 208 148 130 193 184 207 208 202 226 194 179 189 174 165 169 163 160 161 167 183 186 187 188 174 165 187 201 190 181 180 178 176 176 172 175 179 178 179 180 180 180 176 176 175 175 177 179 181 179 179 180 177 181 179 180 182 175 176 179 183 183 175 183 177 158 160 160 160 161 161 166 161 158 167 169 164 164 166 175 185 178 173 174 175 183 178 178 195 157 145 160 158
225 209 225 251 253 214 173 180 220 218 208 187 195 238 216 179 181 147 147 163 159 155 159 164 174 181 184 193 194 176 165 213 213 189 184 182 178 177 175 177 181 179 180 180 180 180 176 175 175 176 178 179 181 179 179 180 178 183 183 185 188 185 186 183 188 191 178 184 166 149 157 157 161 170 164 166 165 163 167 167 173 175 170 177 185 180 173 175 176 170 171 175 154 136 148 168 170
238 189 198 230 270 239 194 196 224 228 209 153 186 229 240 184 135 105 136 150 149 155 156 159 171 189 186 187 202 193 172 195 211 194 188 189 182 181 178 179 183 181 179 180 180 180 177 175 175 177 178 178 181 180 179 181 181 185 187 190 192 192 193 185 186 191 179 179 159 151 160 155 163 176 164 164 168 168 170 168 175 182 185 181 175 182 183 174 167 160 164 162 142 149 159 187 193
253 148 190 204 237 242 204 211 232 233 224 180 192 221 228 180 136 127 153 150 153 158 152 159 171 188 194 187 195 204 195 198 201 191 196 195 186 184 182 180 185 183 179 180 180 178 176 175 175 177 179 179 180 180 181 183 183 185 188 191 193 194 194 184 185 187 175 170 160 155 161 157 163 174 164 162 169 174 174 172 178 185 191 187 180 184 181 168 164 167 173 170 170 177 176 185 199
180 78 222 218 213 220 219 233 234 235 239 220 194 201 207 170 151 164 160 152 165 157 148 158 160 172 192 188 190 212 210 209 207 191 209 212 192 185 184 182 186 185 180 180 180 177 175 175 176 177 179 180 180 181 181 183 184 185 189 192 193 192 190 185 183 183 175 170 165 162 162 159 163 175 174 166 169 179 179 177 181 184 187 188 184 178 170 172 173 175 182 182 186 191 189 195 194
213 135 200 228 216 221 225 240 238 228 230 225 216 209 197 175 165 159 135 135 147 145 150 148 148 163 181 181 186 211 208 204 213 197 214 221 199 185 187 185 186 187 181 180 180 178 175 175 176 177 180 180 181 181 182 184 185 186 189 191 194 192 188 186 184 181 179 178 177 173 173 172 172 179 177 168 175 183 181 184 187 185 189 186 179 179 176 178 178 178 185 188 193 202 201 206 206
239 189 187 211 200 215 219 222 233 232 221 210 219 222 206 195 178 133 123 119 88 92 128 113 143 162 172 177 177 196 201 191 200 203 208 215 200 186 189 188 187 188 183 182 183 180 177 177 177 177 180 181 181 182 183 186 186 187 188 189 193 194 190 188 187 186 183 183 187 181 175 179 181 182 175 174 187 185 177 185 190 187 190 187 183 188 186 182 182 179 182 190 197 205 211 209 213
230 209 202 211 188 193 210 206 210 224 229 205 204 227 226 176 128 128 129 120 98 79 66 54 30 135 166 190 178 181 194 188 190 200 201 206 204 195 191 187 188 189 185 184 184 182 179 178 178 178 180 181 182 183 184 187 188 188 189 189 192 193 193 192 190 190 188 187 191 188 180 180 180 183 182 185 192 183 177 185 189 187 188 189 193 193 185 184 187 179 180 193 196 199 211 208 210
214 209 208 213 193 191 200 203 207 210 230 222 202 216 211 115 115 131 120 108 97 84 66 50 24 33 162 203 182 169 183 191 191 195 196 199 210 211 198 189 187 189 188 186 185 184 181 179 180 180 181 181 182 183 185 188 189 188 188 188 191 192 193 195 193 194 193 190 194 195 193 188 183 185 186 186 187 183 183 187 188 191 188 187 196 196 188 189 195 190 183 195 199 197 206 207 206
207 215 220 221 212 201 195 202 211 198 208 223 206 201 179 134 142 132 111 100 88 77 61 50 36 34 91 167 172 166 178 189 187 187 196 198 208 220 211 196 189 189 190 187 186 185 181 179 180 180 182 182 182 184 185 188 189 189 189 188 189 192 194 196 195 196 196 194 195 198 199 196 188 186 185 183 183 184 187 187 188 194 192 191 195 196 194 194 198 200 192 198 202 195 201 206 207
197 208 223 227 221 213 213 213 212 201 200 210 200 174 90 123 137 125 114 101 87 75 60 50 38 37 71 91 97 155 182 185 183 186 193 197 203 206 203 199 195 193 194 190 187 186 181 178 180 181 183 182 182 185 186 188 190 188 189 189 189 191 192 195 195 195 196 196 197 197 199 200 192 183 182 184 184 186 190 190 192 197 197 197 198 197 199 198 197 201 197 198 203 194 196 205 210
196 205 216 225 230 230 236 220 206 208 211 200 180 140 98 125 136 125 120 104 87 71 59 54 40 35 55 87 70 63 145 163 181 191 189 194 198 192 192 208 201 191 195 194 187 187 184 178 176 181 184 183 184 186 186 188 189 188 190 190 190 192 193 196 195 194 195 195 197 198 197 199 196 186 184 185 185 187 191 193 197 200 199 202 201 199 201 199 198 205 200 196 202 197 194 202 212
233 211 212 221 226 232 249 241 213 210 214 202 183 172 157 160 156 138 134 112 90 70 54 54 51 40 38 77 87 69 70 95 172 198 190 183 175 149 162 251 229 198 195 197 189 188 186 174 174 183 187 185 186 188 188 188 188 189 190 190 192 194 195 198 197 195 195 194 195 199 199 199 198 195 193 189 187 188 192 195 200 202 201 203 204 202 203 201 202 209 204 199 204 200 196 203 212
254 270 270 241 220 215 225 252 240 213 210 210 188 177 176 183 166 144 140 110 93 82 56 49 56 50 38 64 87 71 57 51 64 193 194 171 158 161 171 233 243 214 192 196 194 193 186 174 179 190 191 188 189 190 188 188 189 191 191 191 193 195 196 200 200 196 196 197 197 199 201 202 200 200 199 196 193 192 193 196 199 203 203 204 206 205 204 204 206 212 209 204 206 202 204 212 212
241 267 268 241 225 218 211 231 250 221 209 214 190 168 157 162 137 119 103 79 79 83 67 52 55 57 52 60 70 62 56 42 42 119 177 171 181 178 177 209 222 203 186 200 200 198 194 186 188 196 196 192 192 193 188 186 190 192 191 191 192 194 196 198 199 200 199 199 201 200 202 204 202 202 200 199 200 198 195 197 200 202 203 203 206 207 206 204 206 212 215 212 206 204 210 218 219
216 229 231 218 218 230 217 217 235 231 216 214 197 164 120 94 107 114 109 94 85 82 81 68 59 59 57 58 57 57 65 57 52 73 106 134 192 204 206 213 202 169 185 205 205 205 205 200 195 197 200 200 196 193 188 186 190 191 190 191 191 192 195 197 199 201 202 201 202 203 204 205 204 204 203 201 201 202 201 201 202 203 204 203 204 207 208 206 207 210 214 217 209 204 211 216 220
224 218 218 214 211 220 224 219 221 227 234 230 199 151 123 103 112 121 114 104 97 90 87 76 63 58 56 56 52 47 52 55 56 62 70 85 120 168 199 215 175 139 167 183 190 200 201 204 209 209 209 207 201 194 186 185 188 191 191 192 193 192 193 197 199 200 202 203 202 203 204 205 205 204 205 204 203 204 205 205 205 204 205 203 201 205 209 208 209 210 212 216 213 207 214 219 219